Weather History for Ortonville, MN

Change the Weather History Date:

Thursday, October 17, 2013

  Actual Average (KAQP) Record (KAQP)
Temperature  
Mean Temperature 42 °F -  
Max Temperature 46 °F 55 °F 71 °F (2000)
Min Temperature 35 °F 34 °F 28 °F (2001)
Degree Days  
Heating Degree Days 24    
Moisture  
Dew Point 36 °F    
Average Humidity 82    
Maximum Humidity 93    
Minimum Humidity 70    
Precipitation  
Precipitation 0.16 in - - ()
Sea Level Pressure  
Sea Level Pressure 29.88 in    
Wind  
Wind Speed 6 mph (NW)    
Max Wind Speed 22 mph    
Max Gust Speed 31 mph    
Visibility 10 miles    
Events Rain    
Averages and records for this station are not official NWS values.
T = Trace of Precipitation, MM = Missing Value Source: NWS Daily Summary

Daily Weather History Graph

Daily Weather History Graph

Search for Another Location

Airport:

Trip Planner

Search our weather history database for the weather conditions in past years. The results will help you decide how hot, cold, wet, or windy it might be!

Date:

Astronomy

Oct. 17, 2013 Rise Set
Actual Time 7:44 AM CDT 6:36 PM CDT
Civil Twilight 7:14 AM CDT 7:06 PM CDT
Nautical Twilight 6:40 AM CDT 7:40 PM CDT
Astronomical Twilight 6:06 AM CDT 8:14 PM CDT
Moon 5:52 PM CDT (10/17) 6:15 AM CDT (10/17)
Length of Visible Light 11h 51m
Length of Day
10h 51m
Waxing Gibbous, 98% of the Moon is Illuminated
Oct 17
Waxing Gibbous
Oct 18
Full
Oct 26
Last Quarter
Nov 3
New
Nov 9
First Quarter

Hourly Weather History & Observations

Time (CDT) Temp. Windchill Dew Point Humidity Pressure Visibility Wind Dir Wind Speed Gust Speed Precip Events Conditions
12:14 AM 39.2 °F - 33.8 °F 81% 29.84 in 10.0 mi Calm Calm - N/A   Clear
12:34 AM 37.4 °F - 32.0 °F 81% 29.84 in 10.0 mi Calm Calm - N/A   Clear
12:53 AM 37.4 °F - 33.8 °F 87% 29.83 in 10.0 mi Calm Calm - N/A   Clear
1:14 AM 39.2 °F 37.0 °F 33.8 °F 81% 29.83 in 10.0 mi SW 3.5 mph - N/A   Clear
1:34 AM 39.2 °F 37.0 °F 33.8 °F 81% 29.83 in 10.0 mi SW 3.5 mph - N/A   Clear
1:53 AM 41.0 °F 39.0 °F 33.8 °F 76% 29.83 in 10.0 mi SW 3.5 mph - N/A   Clear
2:14 AM 41.0 °F - 33.8 °F 76% 29.83 in 10.0 mi Calm Calm - N/A   Clear
2:33 AM 41.0 °F - 33.8 °F 76% 29.83 in 10.0 mi Calm Calm - N/A   Clear
2:54 AM 42.8 °F 41.1 °F 35.6 °F 76% 29.82 in 10.0 mi SW 3.5 mph - N/A   Clear
3:14 AM 42.8 °F 41.1 °F 35.6 °F 76% 29.82 in 10.0 mi South 3.5 mph - N/A   Scattered Clouds
3:33 AM 41.0 °F - 35.6 °F 81% 29.82 in 10.0 mi Calm Calm - N/A   Mostly Cloudy
3:54 AM 39.2 °F 37.0 °F 35.6 °F 87% 29.81 in 10.0 mi South 3.5 mph - N/A   Overcast
4:13 AM 41.0 °F - 35.6 °F 81% 29.80 in 10.0 mi Calm Calm - N/A   Overcast
4:34 AM 42.8 °F - 35.6 °F 76% 29.80 in 10.0 mi Calm Calm - N/A   Overcast
4:54 AM 42.8 °F - 35.6 °F 76% 29.80 in 10.0 mi Calm Calm - N/A   Overcast
5:13 AM 42.8 °F - 37.4 °F 81% 29.80 in 10.0 mi Calm Calm - N/A   Overcast
5:34 AM 42.8 °F - 37.4 °F 81% 29.80 in 10.0 mi Calm Calm - N/A   Overcast
5:53 AM 42.8 °F - 37.4 °F 81% 29.80 in 10.0 mi Calm Calm - N/A   Overcast
6:13 AM 42.8 °F - 37.4 °F 81% 29.79 in 10.0 mi Calm Calm - N/A   Overcast
6:33 AM 42.8 °F - 37.4 °F 81% 29.80 in 10.0 mi Calm Calm - N/A   Overcast
6:54 AM 41.0 °F - 37.4 °F 87% 29.80 in 10.0 mi Calm Calm - N/A   Overcast
7:14 AM 42.8 °F 41.1 °F 37.4 °F 81% 29.80 in 10.0 mi West 3.5 mph - N/A   Overcast
7:34 AM 42.8 °F 41.1 °F 37.4 °F 81% 29.80 in 10.0 mi WNW 3.5 mph - N/A   Overcast
7:54 AM 44.6 °F 41.4 °F 37.4 °F 76% 29.81 in 10.0 mi NW 5.8 mph - N/A   Overcast
8:14 AM 44.6 °F 39.7 °F 39.2 °F 81% 29.81 in 10.0 mi NW 9.2 mph - N/A   Mostly Cloudy
8:33 AM 44.6 °F 39.2 °F 39.2 °F 81% 29.82 in 10.0 mi NW 10.4 mph - N/A   Mostly Cloudy
8:54 AM 44.6 °F 38.8 °F 39.2 °F 81% 29.83 in 10.0 mi NNW 11.5 mph - N/A   Mostly Cloudy
9:14 AM 44.6 °F 38.4 °F 41.0 °F 87% 29.83 in 10.0 mi NNW 12.7 mph 17.3 mph N/A   Mostly Cloudy
9:33 AM 46.4 °F 41.5 °F 42.8 °F 87% 29.84 in 10.0 mi NNW 10.4 mph - N/A   Overcast
9:54 AM 46.4 °F 40.1 °F 41.0 °F 81% 29.84 in 10.0 mi NNW 15.0 mph 19.6 mph N/A   Light Drizzle
10:14 AM 46.4 °F 40.1 °F 41.0 °F 81% 29.85 in 10.0 mi NNW 15.0 mph - N/A   Overcast
10:33 AM 46.4 °F 39.8 °F 41.0 °F 81% 29.85 in 10.0 mi North 16.1 mph 21.9 mph N/A   Overcast
10:54 AM 46.4 °F 39.8 °F 41.0 °F 81% 29.86 in 10.0 mi NNW 16.1 mph 20.7 mph N/A   Overcast
11:14 AM 44.6 °F 38.8 °F 41.0 °F 87% 29.86 in 7.0 mi NNW 11.5 mph 21.9 mph N/A Rain Light Rain
11:33 AM 44.6 °F 37.8 °F 41.0 °F 87% 29.87 in 10.0 mi NNW 15.0 mph 20.7 mph 0.02 in Rain Light Rain
11:54 AM 42.8 °F 34.3 °F 39.2 °F 87% 29.87 in 10.0 mi NNW 19.6 mph 26.5 mph 0.03 in Rain Heavy Rain
12:14 PM 42.8 °F 34.8 °F 37.4 °F 81% 29.88 in 10.0 mi NNW 17.3 mph 29.9 mph N/A Rain Light Rain
12:34 PM 42.8 °F 33.8 °F 37.4 °F 81% 29.89 in 10.0 mi NNW 21.9 mph 26.5 mph N/A   Light Drizzle
12:53 PM 41.0 °F 32.8 °F 35.6 °F 81% 29.89 in 10.0 mi NNW 16.1 mph 23.0 mph N/A   Light Drizzle
1:14 PM 39.2 °F 31.6 °F 35.6 °F 87% 29.90 in 10.0 mi NNW 12.7 mph 25.3 mph N/A Rain Rain
1:34 PM 39.2 °F 30.5 °F 35.6 °F 87% 29.90 in 5.0 mi NNW 16.1 mph 31.1 mph N/A Rain Light Rain
1:54 PM 39.2 °F 29.8 °F 35.6 °F 87% 29.91 in 7.0 mi NNW 18.4 mph 29.9 mph N/A Rain Light Rain
2:14 PM 39.2 °F 30.5 °F 35.6 °F 87% 29.90 in 7.0 mi NNW 16.1 mph 23.0 mph 0.02 in Rain Rain
2:34 PM 37.4 °F 28.2 °F 35.6 °F 93% 29.91 in 10.0 mi NNW 16.1 mph 27.6 mph 0.05 in Rain Rain
2:53 PM 39.2 °F 32.0 °F 35.6 °F 87% 29.91 in 10.0 mi NNW 11.5 mph 23.0 mph 0.08 in Rain Rain
3:14 PM 39.2 °F 31.2 °F 35.6 °F 87% 29.91 in 10.0 mi NNW 13.8 mph 20.7 mph 0.01 in Rain Light Rain
3:33 PM 39.2 °F 31.2 °F 35.6 °F 87% 29.91 in 7.0 mi NNW 13.8 mph 20.7 mph 0.01 in Rain Light Rain
3:54 PM 39.2 °F 31.6 °F 35.6 °F 87% 29.91 in 7.0 mi NNW 12.7 mph 23.0 mph 0.02 in Rain Light Rain
4:14 PM 39.2 °F 32.0 °F 35.6 °F 87% 29.92 in 10.0 mi NNW 11.5 mph 17.3 mph 0.01 in Rain Light Rain
4:33 PM 39.2 °F 32.5 °F 37.4 °F 93% 29.92 in 10.0 mi NNW 10.4 mph - 0.02 in Rain Light Rain
4:54 PM 41.0 °F 34.3 °F 37.4 °F 87% 29.91 in 10.0 mi NNW 11.5 mph 17.3 mph 0.03 in Rain Light Rain
5:14 PM 41.0 °F 35.2 °F 37.4 °F 87% 29.92 in 10.0 mi NNW 9.2 mph - N/A Rain Light Rain
5:34 PM 41.0 °F 35.2 °F 37.4 °F 87% 29.92 in 10.0 mi NNW 9.2 mph - N/A   Light Drizzle
5:54 PM 42.8 °F 36.2 °F 37.4 °F 81% 29.93 in 10.0 mi NNW 12.7 mph 17.3 mph N/A Rain Light Rain
6:13 PM 41.0 °F 33.5 °F 35.6 °F 81% 29.94 in 10.0 mi NW 13.8 mph 20.7 mph N/A Rain Light Rain
6:34 PM 41.0 °F 34.3 °F 35.6 °F 81% 29.94 in 10.0 mi NNW 11.5 mph - N/A Rain Light Rain
6:54 PM 41.0 °F 34.3 °F 35.6 °F 81% 29.94 in 10.0 mi NNW 11.5 mph 19.6 mph N/A   Light Drizzle
7:13 PM 41.0 °F 34.7 °F 35.6 °F 81% 29.95 in 10.0 mi NNW 10.4 mph 19.6 mph N/A Rain Light Rain
7:34 PM 41.0 °F 35.8 °F 35.6 °F 81% 29.95 in 10.0 mi NNW 8.1 mph - N/A   Overcast
7:53 PM 41.0 °F 35.8 °F 35.6 °F 81% 29.95 in 10.0 mi NNW 8.1 mph - N/A   Overcast
8:14 PM 41.0 °F 36.4 °F 35.6 °F 81% 29.95 in 10.0 mi NW 6.9 mph - N/A   Overcast
8:34 PM 41.0 °F 36.4 °F 35.6 °F 81% 29.96 in 10.0 mi NW 6.9 mph - N/A   Overcast
8:53 PM 42.8 °F 37.0 °F 35.6 °F 76% 29.96 in 10.0 mi NW 10.4 mph - N/A   Overcast
9:13 PM 42.8 °F 37.5 °F 35.6 °F 76% 29.96 in 10.0 mi NW 9.2 mph - N/A   Overcast
9:32 PM 42.8 °F 37.0 °F 33.8 °F 70% 29.96 in 10.0 mi NW 10.4 mph - N/A   Overcast
9:53 PM 41.0 °F 35.2 °F 33.8 °F 76% 29.97 in 10.0 mi WNW 9.2 mph - N/A   Overcast
10:11 PM 39.2 °F 33.6 °F 33.8 °F 81% 29.97 in 10.0 mi WNW 8.1 mph - N/A   Scattered Clouds
10:33 PM 39.2 °F 33.0 °F 33.8 °F 81% 29.97 in 10.0 mi WNW 9.2 mph - N/A   Clear
10:54 PM 37.4 °F 30.3 °F 32.0 °F 81% 29.98 in 10.0 mi WNW 10.4 mph - N/A   Clear
11:13 PM 37.4 °F 30.3 °F 30.2 °F 75% 29.97 in 10.0 mi WNW 10.4 mph - N/A   Clear
11:34 PM 37.4 °F 31.4 °F 30.2 °F 75% 29.97 in 10.0 mi WNW 8.1 mph - N/A   Clear
11:54 PM 35.6 °F 29.2 °F 30.2 °F 81% 29.97 in 10.0 mi WNW 8.1 mph - N/A   Clear